Theta_e
289 289 289 289 290 290 289 289 290 291 292 292 293 293 294 295 295 295 295 294 294 294 293 293 293 293 293 293 293 293 293 295 299 290 290 289 288 287 287 285 284 284 284
287 288 288 287 288 288 288 287 286 286 287 289 291 291 292 293 294 294 294 293 293 293 293 292 292 293 292 292 291 291 291 292 295 288 287 287 287 286 285 285 284 284 283
286 286 286 286 287 287 287 286 285 285 285 286 287 289 291 291 291 292 293 292 292 292 293 292 292 291 291 291 291 291 290 290 291 290 285 285 285 285 284 283 283 283 282
285 285 285 285 285 285 286 285 283 283 284 284 285 286 287 289 289 290 290 291 291 291 292 291 291 291 291 290 290 290 289 288 288 289 286 284 283 283 283 282 281 281 282
285 285 284 284 283 283 284 283 282 282 283 284 285 285 286 286 288 288 289 289 289 289 290 290 290 291 290 290 289 289 288 288 287 287 287 284 282 281 281 282 282 282 281
284 284 284 283 283 283 283 283 281 281 282 283 284 285 285 286 286 287 288 288 288 288 288 289 289 289 289 289 289 289 288 288 287 287 287 285 284 283 281 282 282 283 283
284 283 283 283 282 282 281 281 281 280 280 281 283 284 284 284 285 287 287 288 288 288 288 288 288 288 288 287 287 288 288 287 289 287 287 287 285 283 282 283 282 283 284
283 283 282 282 282 281 281 280 279 279 280 280 281 282 282 281 283 285 286 287 288 288 288 287 287 288 287 286 286 286 287 287 287 288 287 288 286 284 284 284 283 282 282
282 281 281 281 281 280 279 279 278 278 278 278 278 279 279 280 282 283 285 286 287 287 287 288 287 287 287 287 285 286 286 286 286 287 287 286 285 284 284 283 282 281 281
280 280 280 279 279 279 278 278 277 276 276 276 276 276 277 278 279 281 283 285 286 287 287 287 287 287 287 287 286 285 286 286 285 285 285 284 284 283 283 283 282 281 282
277 277 276 276 276 276 275 275 275 274 274 273 273 274 274 276 277 279 282 284 285 286 287 287 287 287 287 286 286 285 285 285 285 284 282 282 282 282 282 281 281 281 281
273 272 271 271 270 271 271 271 271 271 271 271 271 272 273 275 277 279 281 283 284 286 286 287 287 288 287 287 286 286 285 285 283 283 281 281 281 281 281 280 280 280 280
268 267 266 266 266 266 267 267 268 268 269 269 270 271 272 274 275 277 280 282 284 284 285 286 287 288 287 286 286 285 285 285 282 282 281 281 281 281 280 280 279 278 277
265 264 264 264 264 264 265 265 266 266 267 268 268 270 271 272 274 276 279 282 283 283 283 285 286 287 286 285 285 285 285 285 284 282 282 282 281 279 277 276 275 275 274
264 263 263 264 264 264 264 264 265 265 266 266 267 268 269 270 271 273 275 277 281 282 282 283 285 285 284 284 284 284 284 285 283 282 282 280 278 277 275 275 274 273 273
263 263 263 263 264 264 264 264 265 266 267 268 268 269 270 271 272 273 275 276 277 280 284 283 284 284 283 283 283 283 283 282 281 280 279 276 276 275 274 274 273 273 273
262 262 262 263 263 264 264 265 265 265 265 266 267 268 269 270 271 273 274 275 277 280 283 284 284 283 282 282 283 283 282 279 279 277 276 276 275 274 274 273 273 273 273
262 262 262 263 264 264 265 265 265 265 266 266 266 267 268 270 271 273 274 276 279 280 282 284 283 282 282 282 283 282 280 277 277 276 276 275 274 274 273 273 272 272 272
262 262 262 263 264 265 265 266 266 266 266 266 266 267 267 269 271 273 275 277 281 284 284 284 282 282 282 281 279 278 277 276 276 275 274 274 273 273 273 272 272 271 271
262 262 263 264 265 266 266 267 267 267 267 267 267 268 268 270 272 275 279 280 281 284 283 283 282 281 279 278 276 275 275 274 273 273 272 272 272 272 271 271 270 270 269
263 264 264 265 265 266 267 268 270 271 270 269 269 269 272 275 277 278 279 280 283 282 280 278 278 277 277 276 274 273 273 272 271 271 270 270 270 270 270 270 269 269 269
263 263 264 264 265 266 267 268 269 269 270 271 271 271 271 270 271 272 273 274 276 276 276 276 275 275 274 273 272 271 270 270 269 269 269 269 269 269 269 269 268 268 268
262 263 263 264 265 265 266 267 267 267 267 267 267 267 267 266 266 267 267 268 270 271 271 271 271 271 271 271 271 271 270 269 269 269 268 268 268 268 268 267 268 268 268
261 262 262 263 264 264 265 265 265 265 265 265 265 265 265 265 265 265 265 266 267 268 269 269 269 269 269 269 269 269 269 269 269 269 270 268 268 267 267 267 267 267 267
261 261 261 262 263 263 264 264 264 264 264 264 264 264 264 264 264 264 264 264 265 265 265 266 266 267 267 268 268 268 268 270 270 269 269 269 268 267 267 267 267 266 266
261 261 261 261 262 262 263 263 264 264 264 264 264 263 263 263 263 263 263 264 264 264 265 265 266 267 267 268 268 269 269 269 269 268 268 267 267 267 267 267 267 267 266
Wind_Speed
20 19 19 18 17 19 22 23 22 20 18 17 17 19 20 23 25 29 31 31 33 33 33 34 36 36 35 32 32 33 31 28 7 5 20 21 30 30 31 29 28 25 20
19 18 16 17 17 17 19 20 24 27 27 23 20 18 20 22 24 28 30 30 33 33 34 35 37 35 36 34 33 32 32 31 23 9 17 23 25 31 33 33 32 26 22
18 17 17 16 16 16 17 20 24 24 25 25 25 24 22 22 24 27 29 31 33 34 35 36 38 37 37 35 33 32 31 31 32 17 13 19 18 27 26 27 28 26 24
18 19 19 19 19 18 18 20 24 27 25 25 25 25 24 22 24 26 29 30 32 34 36 38 38 40 40 39 37 36 32 31 31 23 20 19 21 23 26 23 22 27 25
17 18 18 21 23 25 22 23 26 27 26 26 26 26 25 24 25 24 26 30 31 34 36 38 40 40 43 42 40 37 36 34 29 28 20 15 19 17 28 20 20 24 23
24 25 27 29 28 25 24 24 25 25 25 24 23 23 24 25 25 26 26 28 30 32 36 37 39 41 45 47 47 44 44 42 36 32 29 25 26 26 30 25 20 12 6
24 27 28 28 29 30 30 28 27 27 26 25 27 24 25 27 28 28 28 30 33 32 36 36 36 37 39 39 44 46 46 51 50 44 39 37 31 35 34 29 27 22 10
24 28 31 28 28 28 28 29 31 29 29 30 30 29 31 34 30 30 31 32 33 35 37 37 36 36 37 37 35 38 44 44 50 48 46 41 39 40 44 41 36 25 13
23 26 28 29 30 32 35 36 36 31 33 34 33 33 32 37 33 33 31 31 32 36 36 37 39 36 37 36 35 38 37 44 39 45 40 35 36 41 45 35 29 25 9
24 27 28 29 31 32 35 37 38 37 38 37 39 38 38 40 41 37 34 31 33 34 34 36 39 45 38 34 37 36 33 38 32 30 31 28 31 34 39 43 41 31 15
26 28 30 31 33 35 37 38 38 39 39 41 42 45 43 42 44 40 38 35 34 32 33 33 33 36 41 41 38 37 41 35 34 32 30 30 30 35 35 33 37 34 24
28 31 32 33 35 36 37 38 37 37 38 41 41 43 43 42 39 40 37 37 38 35 34 33 32 30 33 36 39 41 40 38 32 33 32 32 32 32 31 30 27 24 24
30 30 31 32 32 34 35 37 36 34 34 35 34 35 39 38 37 38 37 36 36 36 38 37 32 30 29 32 37 39 40 37 33 34 35 36 37 35 32 31 27 25 20
31 31 30 30 31 32 32 31 32 31 31 31 30 30 33 34 34 30 29 28 27 30 34 36 35 32 32 33 34 40 39 37 33 33 29 27 29 33 31 32 29 26 21
30 31 31 30 31 32 31 32 32 34 35 35 34 35 33 33 32 35 35 37 25 24 24 27 25 25 25 27 28 31 33 32 29 29 25 26 26 29 27 28 26 24 16
31 29 29 32 32 32 32 33 34 39 41 42 44 45 42 47 48 47 45 42 44 38 27 23 20 22 23 24 24 24 27 25 29 27 25 27 26 26 27 25 25 24 19
32 33 32 33 32 32 31 30 27 35 38 39 41 41 42 43 43 43 42 41 41 39 33 23 20 21 21 21 22 22 22 25 26 29 29 28 27 26 29 28 25 22 18
32 33 33 32 32 32 31 31 31 29 25 32 35 35 36 37 37 36 37 36 31 34 35 19 18 20 20 20 21 18 22 26 28 29 27 26 27 27 26 24 24 21 18
31 31 31 31 32 33 33 33 31 30 29 30 33 33 30 30 29 31 33 35 24 18 19 14 19 20 20 18 22 24 27 28 27 27 27 27 26 26 22 22 20 19 17
29 30 32 31 31 31 30 28 28 27 26 25 25 27 30 24 21 22 17 18 16 16 11 15 18 19 22 24 23 25 25 25 26 26 26 27 26 25 23 22 21 19 15
28 29 30 30 27 28 28 26 27 26 20 21 24 28 30 29 19 16 16 19 11 13 16 19 22 24 27 27 25 24 25 24 25 27 27 27 27 24 24 23 21 18 16
25 25 26 26 27 26 26 25 23 22 21 17 19 18 20 18 17 15 15 18 19 19 19 21 19 21 24 26 27 27 25 25 26 27 27 28 27 24 23 21 19 17 16
22 24 25 25 25 26 23 21 20 20 20 19 18 18 18 17 16 17 18 18 17 17 16 18 21 22 21 22 24 26 28 26 29 32 31 29 26 25 23 21 18 15 13
22 22 23 24 23 24 21 21 20 20 20 19 19 18 18 17 17 18 19 18 17 17 16 16 17 19 19 19 19 20 23 26 29 30 32 30 25 24 21 19 17 15 13
20 21 22 22 22 23 23 22 21 20 19 20 20 20 20 19 20 21 21 20 20 21 20 20 20 19 19 19 20 22 25 28 27 26 24 23 22 21 20 18 15 11 9
19 20 20 20 21 22 22 22 22 21 20 20 20 21 21 22 23 24 24 25 26 26 26 26 24 24 24 23 22 22 22 21 20 19 19 19 19 18 15 12 10 9 8
Wind_Direction
18 17 18 12 3 357 356 354 352 349 340 320 303 289 276 265 257 249 242 238 232 230 228 228 226 222 220 218 218 220 219 216 196 167 193 203 196 197 203 207 210 223 234
8 6 8 4 2 359 353 349 350 346 345 340 323 298 285 273 263 257 248 243 239 236 231 227 226 223 223 220 215 215 216 215 211 157 177 186 197 204 208 205 209 223 230
358 353 355 355 352 349 345 342 344 344 343 342 339 329 306 288 273 264 259 250 246 242 238 232 231 224 222 218 217 216 213 211 210 192 174 188 195 198 205 211 205 217 226
340 339 338 339 337 333 328 328 333 335 334 334 334 329 325 303 283 275 265 259 256 250 245 240 235 228 225 219 215 214 207 205 203 198 184 178 189 194 203 201 205 211 218
323 322 318 317 319 320 319 318 322 324 322 323 322 322 318 312 305 284 272 262 257 258 252 244 239 236 232 226 218 214 206 203 200 200 203 188 185 175 196 208 215 207 212
319 316 315 315 315 312 312 310 313 312 311 311 306 304 304 303 298 291 277 268 264 258 258 253 245 239 237 235 228 225 216 206 203 200 204 206 200 195 186 190 201 181 191
304 303 304 304 304 307 309 308 306 306 306 302 301 296 295 296 295 289 283 272 262 257 257 254 251 244 238 230 233 228 225 219 222 209 205 211 198 193 193 187 192 201 187
287 293 297 298 295 297 301 300 301 303 301 299 298 291 290 290 289 286 281 272 268 263 255 254 253 249 241 226 224 225 228 227 223 218 215 215 209 203 203 201 192 189 173
283 284 284 286 288 292 293 295 296 299 298 295 293 290 285 284 283 282 279 272 265 262 260 255 249 249 246 234 217 221 225 229 226 224 222 216 207 207 208 186 172 173 184
293 291 290 288 286 286 286 287 289 292 291 291 289 286 284 279 278 276 272 266 265 263 261 255 248 245 241 239 222 218 220 228 220 216 215 208 194 197 195 200 184 178 172
303 301 297 293 290 287 287 286 288 287 287 286 285 285 283 278 276 274 267 261 255 258 258 256 249 243 241 235 230 220 222 220 213 203 197 196 189 186 188 189 192 185 178
304 300 299 298 296 293 291 288 286 285 284 282 282 282 281 280 277 275 268 260 257 256 256 257 252 241 233 230 228 227 225 219 197 194 190 195 191 187 186 185 181 183 191
307 301 299 297 294 292 290 289 288 284 279 277 276 277 279 281 280 277 273 266 260 258 257 256 254 248 227 226 221 224 220 213 199 198 197 199 195 186 181 173 171 179 178
304 303 302 298 296 293 289 286 284 283 282 279 278 277 280 281 280 281 276 264 258 261 264 260 255 250 216 212 214 222 217 212 206 201 201 194 183 168 164 163 160 161 162
303 302 300 298 295 293 288 284 282 278 275 276 274 273 274 274 276 280 281 284 279 250 263 267 247 224 204 210 212 212 215 211 197 192 188 167 164 160 157 162 160 161 168
304 303 300 298 294 291 289 288 283 284 285 283 281 279 278 275 277 276 273 270 275 274 259 252 245 215 209 204 204 202 208 194 182 175 161 155 157 158 155 157 164 170 169
298 297 296 295 292 291 289 289 290 290 288 287 285 283 281 280 278 275 271 268 266 263 262 245 235 216 210 203 201 194 185 173 163 155 156 165 165 165 160 163 166 167 170
296 294 292 291 291 291 290 289 289 289 291 292 289 288 286 282 278 274 271 267 265 252 256 235 218 204 200 197 194 178 162 156 159 156 161 166 168 163 165 161 165 166 163
300 296 295 294 293 293 292 290 287 286 285 287 293 294 290 290 286 277 267 256 251 244 217 224 201 192 187 175 154 153 156 161 162 159 160 160 159 161 157 153 150 151 151
306 301 299 297 298 299 298 295 292 286 283 284 288 289 296 299 291 290 288 281 259 239 188 197 180 172 147 147 149 151 151 149 150 148 150 149 150 152 144 139 143 147 156
308 307 308 307 305 305 303 304 304 297 278 282 285 292 302 299 308 311 301 282 230 115 117 127 135 141 149 152 147 147 146 144 145 145 145 146 147 142 143 142 147 153 156
316 314 315 314 313 314 317 318 323 331 331 306 311 327 346 357 358 12 14 37 70 105 137 138 137 144 151 148 146 142 142 141 143 145 144 145 141 141 145 146 148 152 157
325 325 325 324 324 324 327 334 339 345 347 349 350 356 5 11 18 25 28 47 74 91 108 121 125 124 138 146 155 159 155 154 157 159 150 147 148 151 150 149 149 149 157
334 334 333 332 334 336 339 342 348 357 2 3 4 9 15 19 25 32 43 57 72 82 95 108 118 127 133 137 148 158 163 161 160 160 159 154 151 155 153 153 160 164 170
343 342 341 340 342 344 345 350 357 3 12 16 16 18 22 28 36 40 48 61 73 83 90 101 111 120 126 133 137 143 149 154 152 155 157 158 159 162 166 168 170 175 189
351 351 349 349 350 352 356 357 1 7 14 21 26 29 30 36 41 47 53 63 71 81 89 93 99 107 113 118 124 130 136 140 145 148 153 155 157 162 167 171 181 200 218